+ View the NASA Portal
+ Center for Near-Earth Object Studies
IMPORTANT:
The SSD Announcement email list is now available. Major changes are coming in the near future, including possible hostname and/or URL changes. To be notified of such changes, subscribe to this email list.
Please visit
this page
for more details.
Don't show this message again
JPL Small-Body Database Browser
Search:
[
help
]
233225 (2005 YZ30)
Classification:
Main-belt Asteroid
SPK-ID:
2233225
[
Ephemeris
|
Orbit Diagram
|
Orbital Elements
|
Mission Design
|
Physical Parameters
|
Discovery Circumstances
|
Close-Approach Data
]
[ show orbit diagram ]
Orbital Elements at Epoch 2458600.5 (2019-Apr-27.0) TDB
Reference:
JPL 16
(heliocentric ecliptic J2000)
Element
Value
Uncertainty (1-sigma)
Units
e
.1753599791712345
7.7776e-08
a
2.45431027433298
2.0262e-08
au
q
2.023922475746202
1.804e-07
au
i
1.186165628859169
5.6356e-06
deg
node
300.7513027789702
0.00028855
deg
peri
238.1785407686544
0.00028886
deg
M
117.2292583442284
1.6044e-05
deg
t
p
2458143.173737800647
(2018-Jan-24.67373780)
5.9386e-05
TDB
period
1404.405834491681
3.85
1.7392e-05
4.762e-08
d
yr
n
.256336160929081
3.1744e-09
deg/d
Q
2.884698072919758
2.3816e-08
au
Orbit Determination Parameters
# obs. used (total)
295
data-arc span
5081 days (13.91 yr)
first obs. used
2005-10-27
last obs. used
2019-09-25
planetary ephem.
DE431
SB-pert. ephem.
SB431-N16
condition code
0
norm. resid. RMS
.6505
source
ORB
producer
Otto Matic
solution date
2019-Nov-08 01:34:50
Additional Information
Earth MOID
= 1.02827 au
Jupiter MOID
= 2.08192 au
T_jup
= 3.472
[ show covariance matrix ]
[
Ephemeris
|
Orbit Diagram
|
Orbital Elements
|
Mission Design
|
Physical Parameters
|
Discovery Circumstances
|
Close-Approach Data
]
Physical Parameter Table
Parameter
Symbol
Value
Units
Sigma
Reference
Notes
absolute magnitude
H
17.0
n/a
MPO433523
233225 (2005 YZ30)
Discovered 2005-Dec-22 by Spacewatch at Kitt Peak
Reference:
20100228/Numbers.arc
Last Updated:
2010-03-03
[ show close-approach data ]
[
Ephemeris
|
Orbit Diagram
|
Orbital Elements
|
Mission Design
|
Physical Parameters
|
Discovery Circumstances
|
Close-Approach Data
]
2019-Dec-14 19:42 UT
(server date/time)
Site Manager:
Ryan S. Park
Webmaster
:
Alan B. Chamberlin